Location: Ferintosh
(52.7647°N, 112.9692°W)
Time: 23:08:49
(UTC+00:00)

Vanguard 1 Rocket - Pass Details

Date: 19 May 2024
Orbit: 649 x 4221 km, 34.3° (Epoch: 13 June)

Event Time Altitude Azimuth Distance (km) Brightness Sun altitude
Rises 14:59:50 0° 192° (SSW) 8,147 12.2 29.5°
Reaches altitude 10° 15:10:16 10° 172° (S) 6,479 12.0 31.1°
Maximum altitude 15:18:02 14° 149° (SSE) 5,475 12.1 32.3°
Drops below altitude 10° 15:24:22 10° 124° (SE) 5,117 12.4 33.2°
Sets 15:30:22 0° 101° (E) 5,390 12.4 34.1°
